User: anonymous   Login
Location: Ocean City
(38.3360°N, 75.0850°W)
Time: 01:49:01
(UTC-05:00)
Language:

Transit 4A - Orbit

View from above orbital plane
View from above orbital plane
View from above satellite
View from above satellite

Ground track
Ground track

The orbit data is extracted from the following two-line orbital elements,

1   116U 61015A   19320.68598993 -.00000065 +00000-0 +90798-5 0  9993
2   116 066.8114 010.7809 0073786 163.7199 196.6276 13.91761821962078
Epoch (UTC): 16 November 2019 16:27:49
Eccentricity: 0.0073786
inclination: 66.8114°
perigee height: 868 km
apogee height: 976 km
right ascension of ascending node: 10.7809°
argument of perigee: 163.7199°
revolutions per day: 13.91761821
mean anomaly at epoch: 196.6276°
orbit number at epoch: 96207

The dashed part of the orbit path shows where the satellite is in the earth's shadow,  

DLR